Regional Weather Roundup
Issued by NWS San Angelo, TX

Home | Current Version | Previous Version | Text Only | Print | Product List | Glossary On
Versions: 1 2 3 4 5 6 7 8 9 10 11 12 13 14 15 16 17 18 19 20 21 22 23 24 25 26 27 28 29 30 31 32 33 34 35 36 37 38 39 40 41 42 43 44 45 46 47 48 49 50
000
ASUS44 KSJT 280010
RWRSJT
WEST CENTRAL TEXAS REGIONAL WEATHER ROUNDUP
NATIONAL WEATHER SERVICE SAN ANGELO TX
600 PM CST THU NOV 27 2014

NOTE: "FAIR" INDICATES FEW OR NO CLOUDS BELOW 12,000 FEET WITH NO
SIGNIFICANT WEATHER AND/OR OBSTRUCTIONS TO VISIBILITY.

TXZ049-054-064>066-071>073-076>078-098-099-113-114-127-128-139-140-
154-155-168>170-280100
...LOCATIONS ACROSS WEST CENTRAL TEXAS...

CITY           SKY/WX    TMP DP  RH WIND       PRES   REMARKS
SAN ANGELO     CLEAR     58  32  37 SE5       30.33F
ABILENE        CLEAR     53  32  44 SE7       30.36S
DYESS AFB      CLEAR     52  33  47 S5        30.35S
JUNCTION       CLEAR     59  32  36 E8        30.36S
SWEETWATER     CLEAR     51  30  44 S7        30.38R
BROWNWOOD      CLEAR     54  32  43 SE5       30.38S
COLEMAN        CLEAR     52  40  61 SE6       30.37S
SONORA         CLEAR     61  30  31 S3        30.39R
OZONA          FAIR      59  28  31 S3        30.37S
BRADY          CLEAR     52  30  43 SE5       30.37S
$$

TEXAS PANHANDLE/OKLAHOMA PANHANDLE

CITY           SKY/WX    TMP DP  RH WIND       PRES   REMARKS
AMARILLO       PTCLDY    53  30  41 S15       30.22F
BORGER         MOCLDY    58  29  33 S15       30.20S
CANADIAN       PTCLDY    50  26  39 S8        30.24R
DALHART        MOCLDY    46  27  47 SW10      30.20S
DUMAS            N/A     51  27  39 SW7       30.19F
GUYMON         NOT AVBL
HEREFORD       CLEAR     55  32  41 MISG      30.24S
PAMPA          PTCLDY    50  27  41 S13       30.23S
PERRYTON       PTCLDY    51  28  40 S15       30.17F
$$

SOUTHERN PANHANDLE/SOUTH PLAINS/ROLLING PLAINS

CITY           SKY/WX    TMP DP  RH WIND       PRES   REMARKS
LUBBOCK        PTCLDY    51  31  46 S10       30.29S
SNYDER         CLEAR     51  32  47 SE8       30.35R
CHILDRESS      CLEAR     50  27  40 S9        30.30F
SEMINOLE       CLEAR     53  29  39 S6        30.32S
$$

PERMIAN BASIN

CITY           SKY/WX    TMP DP  RH WIND       PRES   REMARKS
MIDLAND        CLEAR     60  28  29 S10       30.31F
ODESSA         CLEAR     58  28  32 S8        30.32S
WINK           CLEAR     58  28  32 SE6       30.29F
$$

FAR WEST/SOUTHWEST MOUNTAINS/TRANS PECOS

CITY           SKY/WX    TMP DP  RH WIND       PRES   REMARKS
ALPINE         CLEAR     55  21  26 SW8       30.40R
DRYDEN           N/A     59  34  39 E6        30.33S
EL PASO        CLEAR     66  21  18 CALM      30.28F
FORT STOCKTON  CLEAR     60  29  30 SE9       30.30S
GUADALUPE PASS NOT AVBL
MARFA          CLEAR     57  19  23 SE6       30.37S
PECOS          CLEAR     60  29  31 CALM      30.30S
$$

DALLAS/FORT WORTH METROPLEX

CITY           SKY/WX    TMP DP  RH WIND       PRES   REMARKS
DFW AIRPORT    PTCLDY    51  22  31 SE6       30.40F
FTW MEACHAM    CLEAR     53  24  32 E6        30.39F
DAL-EXECUTIVE  CLEAR     52  22  30 SE3       30.40F
GRAND PRAIRIE  NOT AVBL
ADDISON        NOT AVBL
MESQUITE       CLEAR     50  21  32 CALM      30.42S
LANCASTER      CLEAR     55  19  25 CALM      30.42S
$$

NORTH CENTRAL TEXAS

CITY           SKY/WX    TMP DP  RH WIND       PRES   REMARKS
SHRMAN/DENISON CLEAR     51  26  38 SE5       30.41F
GAINESVILLE    NOT AVBL
BRIDGEPORT     CLEAR     49  27  41 SE3       30.40F
DENTON         CLEAR     50  23  34 S7        30.40F
WAXAHACHIE     CLEAR     52  27  38 CALM      30.42F
GRANBURY       CLEAR     55  29  36 SE5       30.41S
$$

WESTERN NORTH TEXAS

CITY           SKY/WX    TMP DP  RH WIND       PRES   REMARKS
WICHITA FALLS  CLEAR     50  26  39 SE6       30.35F
VERNON         CLEAR     46  30  53 S8        30.35S
BRECKENRIDGE   CLEAR     55  28  35 SE7       30.36F
COMANCHE       CLEAR     53  31  42 S5        30.38F
$$

CENTRAL AND SOUTH CENTRAL TEXAS

CITY           SKY/WX    TMP DP  RH WIND       PRES   REMARKS
AUSTIN/BERGSTM CLEAR     53  33  46 E3        30.40S
WACO           CLEAR     48  34  58 CALM      30.41S HAZE
HILLSBORO      CLEAR     53  25  33 CALM      30.41S
TEMPLE         CLEAR     54  27  35 CALM      30.40S
KILLEEN-GRAY   CLEAR     52  30  42 SE5       30.40S
FORT HOOD      CLEAR     57  29  34 CALM      30.40S
GEORGETOWN     CLEAR     54  32  43 CALM      30.40F
LAGO VISTA     FAIR      52  32  46 E3        30.40F
SAN MARCOS     CLEAR    N/A N/A N/A E6        30.41S
NEW BRAUNFELS  CLEAR     59  33  37 NE5       30.39S
RANDOLPH AFB   CLEAR     58  34  40 E3        30.40S
SAN ANTONIO    CLEAR     58  34  40 E3        30.40S
STINSON        CLEAR     61  34  36 E5        30.38S
PLEASANTON     NOT AVBL
LA GRANGE      CLEAR     54  42  65 CALM      30.39S
GIDDINGS       CLEAR     54  35  48 CALM      30.44F
$$

EAST TEXAS

CITY           SKY/WX    TMP DP  RH WIND       PRES   REMARKS
PARIS          CLEAR     48  21  34 SE7       30.42F
CLARKSVILLE    NOT AVBL
TYLER          CLEAR     54  25  32 E5        30.41S
LONGVIEW       CLEAR     47  34  60 CALM      30.43S
PALESTINE      CLEAR     52  36  53 CALM      30.42S HAZE
NACOGDOCHES    CLEAR     46  36  66 E5        30.43S
$$

TEXAS HILL COUNTRY AND EDWARDS PLATEAU

CITY           SKY/WX    TMP DP  RH WIND       PRES   REMARKS
LLANO          CLEAR     54  32  43 CALM      30.42F
HORSESHOE BAY  FAIR      52  31  44 CALM      30.40S
KERRVILLE      CLEAR     56  33  41 E5        30.39S
FREDERICKSBRG  CLEAR     54  32  43 CALM      30.39R
ROCKSPRINGS    CLEAR     55  32  41 MISG      30.39S
HONDO          CLEAR     59  34  39 E7        30.40S
UVALDE         CLEAR     60  35  40 E5        30.39R
DEL RIO        CLEAR     63  37  38 SE7       30.34R
$$

SOUTHEAST TEXAS

CITY           SKY/WX    TMP DP  RH WIND       PRES   REMARKS
COLLEGE STN    CLEAR     58  29  33 E5        30.41S
CALDWELL       CLEAR     54  30  40 CALM      30.44S
CROCKETT       CLEAR     52  43  71 CALM      30.45R
BRENHAM        CLEAR     58  32  37 CALM      30.41F
HUNTSVILLE     CLEAR     54  36  50 CALM      30.41S
CONROE         CLEAR     51  42  71 CALM      30.42S
HOUSTON BUSH   CLEAR     52  41  66 CALM      30.41F
HOUSTON HOBBY  CLEAR     59  36  42 CALM      30.41S
PERLAND        CLEAR     58  39  49 CALM      30.43S
WHARTON        CLEAR     57  31  36 E5        30.42R
$$

THE UPPER TEXAS COAST

CITY           SKY/WX    TMP DP  RH WIND       PRES   REMARKS
ORANGE         CLEAR     51  40  65 CALM      30.44R
PORT ARTHUR    CLEAR     53  38  56 N3        30.42R
GALVESTON      CLEAR     56  42  59 E5        30.43S
ANGLETON       CLEAR     55  36  48 SE3       30.42S
BAY CITY         N/A     56  35  44 E3        30.41S
$$

TEXAS COASTAL BEND, RIO GRANDE PLAINS DEEP SOUTH TEXAS

CITY           SKY/WX    TMP DP  RH WIND       PRES   REMARKS
VICTORIA       CLEAR     56  43  61 SE9       30.41S
BEEVILLE       FAIR      61  44  54 E6        30.39R
ROCKPORT       CLEAR     61  50  67 E12       30.40R
PORT ARANSAS   CLEAR     62  55  77 E13       30.39R
PORT LAVACA    CLEAR     56  48  73 SE7       30.41S
CORPUS CHRISTI PTCLDY    62  55  77 E12       30.38S
KINGSVILLE NAS CLEAR     63  57  81 E9        30.38R
COTULLA        CLEAR     66  39  37 E8        30.37R
LAREDO         CLEAR     67  41  38 E6        30.36R
BROWNSVILLE    CLEAR     64  56  75 NE6       30.37R
PORT ISABEL    CLEAR     64  58  80 NE5       30.37R
HEBBRONVILLE   CLEAR     66  44  44 E6        30.36R
MCALLEN        MOCLDY    70  51  51 E9        30.35R
WESLACO        MOCLDY    68  54  59 E8        30.36R
FALFURRIAS     CLEAR     66  53  62 E7        30.36R
EDINBURG       PTCLDY    69  55  60 E8        30.36R
$$



USA.gov is the U.S. government's official web portal to all federal, state and local government web resources and services.